Starlink 30300

operational
NORAD ID: 57715 Int'l Des: 2023-129 Owner: SPXS Country: US Constellation: starlink
LEOCIRCULAR

Über Starlink 30300

Beschreibung wird geladen...

Live-Position

3D-Globus wird geladen...

Nächste Überflüge

Höhenverlauf

Altitude vs Time

uPlot chart will show altitude changes over time

Zweizeiliger Elementsatz

1 57715U 23129T 26036.97882647 .00000574 00000-0 57521-4 0 9990
2 57715 43.0039 292.6579 0001190 267.2334 92.8373 15.02538749135885
Epoch: 5. Feb. 2026 • Age: 13 hours

Aktueller Status

Höhe 558.7 km
Geschwindigkeit 7.59 km/s
Subsatellitenpunkt 18.05°N, 118.59°E
Startdatum 27. Aug. 2023
Alter 2.4 years
Typ internet

Technische Details

Klassifizierung Payload
Masse 730.00 kg
Trockenmasse 700.00 kg
Gesamtmasse 730.00 kg
Länge 0.30 m
Durchmesser 4.10 m
Spannweite 29.00 m
Form Box + pan
Hersteller SPXS
Bus-Typ Starlink V2M
Phasenstatus In Orbit
Besitzer/Staat SPXS/US

Große Konstellationen

Loading constellations...